[ hide orbit diagram ]
For accurate long-term ephemerides, please instead use our Horizons system.This orbit viewer was implemented using two-body methods, and hence should not be used for determining accurate long-term trajectories (over several years or decades) or planetary encounter circumstances.
Orbital Elements at Epoch 2459200.5 (2020-Dec-17.0) TDB
Reference: JPL 15 (heliocentric ecliptic J2000)
Element | Value | Uncertainty (1-sigma) | Units |
e | .1398110827933564 | 5.9722e-08 | |
a | 2.408226129503488 | 1.625e-08 | au |
q | 2.071529426726352 | 1.4654e-07 | au |
i | 7.716848452099192 | 7.4344e-06 | deg |
node | 25.56724641033827 | 4.3556e-05 | deg |
peri | 277.8189752921942 | 4.9349e-05 | deg |
M | 140.1953487128544 | 2.3797e-05 | deg |
tp | 2458668.911683017961 (2019-Jul-04.41168302) | 8.9978e-05 | TDB |
period | 1365.036685386035 3.74 | 1.3817e-05 3.783e-08 | d yr |
n | .2637291758193233 | 2.6694e-09 | deg/d |
Q | 2.744922832280625 | 1.8522e-08 | au |
|
| | Orbit Determination Parameters
Additional Information
|
[ show covariance matrix ]
Physical Parameter Table
Parameter |
Symbol |
Value |
Units |
Sigma |
Reference |
Notes |
absolute magnitude |
H |
16.2 |
|
n/a |
MPO506868 |
|
|
199950 Sierpc | Discovered 2007 Apr. 16 at the Astronomical Research Institute in Charleston. |
Sierpc is one of the oldest towns in the Mazovie Region of Poland, established at the turn of the 11th century. It is situated at the crossroads of Prussia and Cracow, and is a pivotal railway junction in Poland. Since 2007, high schools in Sierpc have been active in minor-planet discoveries as part of IASC. |
NOTE: some special characters may not display properly (any characters within {} are an attempt to place the proper accent above a character) |
Reference: 20120703/MPCPages.arc | Last Updated: 2012-07-09 |
|
[ show close-approach data ]
|